Location: Bretagne
(43.8474°N, 0.4650°W)
Time: 15:28:06
(UTC+00:00)

CZ-3 Stage 3 - Pass Details

Date: 15 January 2026
Orbit: 205 x 9450 km, 30.8° (Epoch: 18 February)

Event Time Altitude Azimuth Distance (km) Brightness Sun altitude
Rises 17:40:51 0° 235° (SW) 9,660 9.4 -9.2°
Reaches altitude 10° 17:51:21 10° 227° (SW) 6,626 7.9 -10.9°
Maximum altitude 18:03:47 25° 182° (S) 2,815 5.1 -13.1°
Drops below altitude 10° 18:08:55 10° 128° (SE) 2,570 4.4 -14.0°
Enters shadow 18:09:33 - 122° (ESE) 2,681 4.4 -14.1°
